• In Netherlands
  • List of Countries
  • For 7 days
  • Water Temperature
  • Satellite Maps
  • Weather Map
  • Weather Widgets
  • user-avatar
    Login

    Hourly Weather San Miguel de Tucumán

    Today, 16 January, Tuesday

    Time Temperature Precipitation Wind Pressure Humidity
    00:00 +24°C° 0 mm 1 mps 719 mmHg 64%
    01:00 +24°C° 0 mm 1 mps 718 mmHg 65%
    02:00 +23°C° 0 mm 1 mps 718 mmHg 67%
    03:00 +23°C° 0 mm 1 mps 718 mmHg 68%
    04:00 +23°C° 0 mm 1 mps 718 mmHg 69%
    05:00 +22°C° 0 mm 1 mps 718 mmHg 70%
    06:00 +24°C° 0 mm 1 mps 719 mmHg 66%
    07:00 +26°C° 0 mm 1 mps 719 mmHg 62%
    08:00 +27°C° 0 mm 1 mps 720 mmHg 58%
    09:00 +29°C° 0 mm 2 mps 720 mmHg 53%
    10:00 +31°C° 0 mm 2 mps 720 mmHg 49%
    11:00 +34°C° 0 mm 3 mps 720 mmHg 44%
    12:00 +35°C° 0 mm 3 mps 719 mmHg 42%
    13:00 +36°C° 0 mm 3 mps 718 mmHg 41%
    14:00 +36°C° 0 mm 3 mps 718 mmHg 39%
    15:00 +36°C° 0 mm 3 mps 717 mmHg 41%
    16:00 +35°C° 0 mm 2 mps 717 mmHg 43%
    17:00 +35°C° 0 mm 2 mps 716 mmHg 45%
    18:00 +32°C° 0 mm 1 mps 716 mmHg 50%
    19:00 +31°C° 0 mm 1 mps 717 mmHg 55%
    20:00 +29°C° 0 mm 1 mps 717 mmHg 59%
    21:00 +29°C° 0 mm 1 mps 718 mmHg 60%
    22:00 +28°C° 0 mm 1 mps 718 mmHg 61%
    23:00 +28°C° 0 mm 1 mps 719 mmHg 62%

    Tomorrow, 17 January, Wednesday

    Time Temperature Precipitation Wind Pressure Humidity
    00:00 +28°C° 0.1 mm 1 mps 719 mmHg 64%
    01:00 +27°C° 0.1 mm 1 mps 718 mmHg 65%
    02:00 +27°C° 0.1 mm 1 mps 718 mmHg 67%
    03:00 +26°C° 0 mm 1 mps 718 mmHg 68%
    04:00 +26°C° 0 mm 1 mps 717 mmHg 70%
    05:00 +26°C° 0 mm 1 mps 717 mmHg 71%
    06:00 +27°C° 0 mm 1 mps 718 mmHg 67%
    07:00 +28°C° 0 mm 1 mps 718 mmHg 63%
    08:00 +29°C° 0 mm 1 mps 718 mmHg 58%
    09:00 +31°C° 0 mm 1 mps 718 mmHg 53%
    10:00 +33°C° 0 mm 1 mps 718 mmHg 48%
    11:00 +36°C° 0 mm 2 mps 718 mmHg 43%
    12:00 +36°C° 0.2 mm 2 mps 718 mmHg 45%
    13:00 +35°C° 0.2 mm 1 mps 717 mmHg 46%
    14:00 +34°C° 0.2 mm 1 mps 717 mmHg 48%
    15:00 +34°C° 0.9 mm 1 mps 717 mmHg 51%
    16:00 +34°C° 0.9 mm 2 mps 717 mmHg 53%
    17:00 +32°C° 0.9 mm 2 mps 716 mmHg 56%
    18:00 +31°C° 2.8 mm 2 mps 717 mmHg 64%
    19:00 +29°C° 2.8 mm 2 mps 718 mmHg 73%
    20:00 +27°C° 2.8 mm 1 mps 718 mmHg 81%
    21:00 +26°C° 4.9 mm 1 mps 719 mmHg 85%
    22:00 +26°C° 4.9 mm 1 mps 720 mmHg 89%
    23:00 +25°C° 4.9 mm 1 mps 720 mmHg 94%

    Day after tomorrow, 18 January, Thursday

    Time Temperature Precipitation Wind Pressure Humidity
    00:00 +25°C° 2.3 mm 1 mps 720 mmHg 94%
    01:00 +24°C° 2.3 mm 2 mps 720 mmHg 94%
    02:00 +24°C° 2.3 mm 2 mps 720 mmHg 94%
    03:00 +24°C° 1.2 mm 2 mps 720 mmHg 95%
    04:00 +24°C° 1.2 mm 2 mps 720 mmHg 95%
    05:00 +24°C° 1.2 mm 2 mps 720 mmHg 96%
    06:00 +24°C° 0.2 mm 2 mps 720 mmHg 94%
    07:00 +24°C° 0.2 mm 1 mps 721 mmHg 92%
    08:00 +25°C° 0.2 mm 1 mps 722 mmHg 90%
    09:00 +26°C° 0.4 mm 1 mps 722 mmHg 84%
    10:00 +27°C° 0.4 mm 1 mps 722 mmHg 78%
    11:00 +29°C° 0.4 mm 2 mps 722 mmHg 73%
    12:00 +29°C° 0.9 mm 2 mps 722 mmHg 71%
    13:00 +30°C° 0.9 mm 2 mps 721 mmHg 69%
    14:00 +31°C° 0.9 mm 2 mps 720 mmHg 67%
    15:00 +31°C° 0.5 mm 2 mps 720 mmHg 67%
    16:00 +31°C° 0.5 mm 1 mps 719 mmHg 67%
    17:00 +31°C° 0.5 mm 1 mps 719 mmHg 67%
    18:00 +29°C° 0.7 mm 1 mps 719 mmHg 72%
    19:00 +27°C° 0.7 mm 1 mps 719 mmHg 77%
    20:00 +26°C° 0.7 mm 2 mps 720 mmHg 83%
    21:00 +26°C° 0.4 mm 2 mps 720 mmHg 83%
    22:00 +25°C° 0.4 mm 2 mps 721 mmHg 83%
    23:00 +25°C° 0.4 mm 2 mps 721 mmHg 83%

    19 January, Friday

    Time Temperature Precipitation Wind Pressure Humidity
    00:00 +25°C° 0.1 mm 2 mps 721 mmHg 82%
    01:00 +25°C° 0.1 mm 1 mps 721 mmHg 81%
    02:00 +24°C° 0.1 mm 1 mps 720 mmHg 80%
    03:00 +24°C° 0.6 mm 1 mps 720 mmHg 80%
    04:00 +24°C° 0.6 mm 1 mps 720 mmHg 80%
    05:00 +24°C° 0.6 mm 1 mps 720 mmHg 80%
    06:00 +25°C° 0.4 mm 1 mps 721 mmHg 79%
    07:00 +25°C° 0.4 mm 1 mps 722 mmHg 78%
    08:00 +26°C° 0.4 mm 1 mps 722 mmHg 77%
    09:00 +27°C° 0.3 mm 1 mps 722 mmHg 74%
    10:00 +28°C° 0.3 mm 2 mps 722 mmHg 70%
    11:00 +29°C° 0.3 mm 2 mps 722 mmHg 66%
    12:00 +30°C° 0.3 mm 2 mps 721 mmHg 62%
    13:00 +32°C° 0.3 mm 1 mps 721 mmHg 59%
    14:00 +33°C° 0.3 mm 1 mps 720 mmHg 55%
    15:00 +33°C° 0.4 mm 1 mps 719 mmHg 56%
    16:00 +33°C° 0.4 mm 1 mps 719 mmHg 57%
    17:00 +32°C° 0.4 mm 1 mps 718 mmHg 59%
    18:00 +31°C° 0.3 mm 1 mps 718 mmHg 64%
    19:00 +29°C° 0.3 mm 1 mps 718 mmHg 69%
    20:00 +27°C° 0.3 mm 1 mps 719 mmHg 74%
    21:00 +27°C° 0.4 mm 1 mps 719 mmHg 76%
    22:00 +26°C° 0.4 mm 1 mps 719 mmHg 79%
    23:00 +25°C° 0.4 mm 1 mps 720 mmHg 81%

    20 January, Saturday

    Time Temperature Precipitation Wind Pressure Humidity
    00:00 +25°C° 0.1 mm 1 mps 719 mmHg 82%
    01:00 +25°C° 0.1 mm 1 mps 718 mmHg 82%
    02:00 +25°C° 0.1 mm 1 mps 718 mmHg 82%
    03:00 +25°C° 0 mm 1 mps 717 mmHg 83%
    04:00 +24°C° 0 mm 1 mps 717 mmHg 83%
    05:00 +24°C° 0 mm 1 mps 717 mmHg 83%
    06:00 +25°C° 0 mm 1 mps 717 mmHg 80%
    07:00 +27°C° 0 mm 1 mps 718 mmHg 76%
    08:00 +28°C° 0 mm 1 mps 718 mmHg 73%
    09:00 +29°C° 0 mm 2 mps 718 mmHg 66%
    10:00 +31°C° 0 mm 2 mps 717 mmHg 60%
    11:00 +34°C° 0 mm 3 mps 717 mmHg 53%
    12:00 +34°C° 0.2 mm 3 mps 716 mmHg 55%
    13:00 +34°C° 0.2 mm 3 mps 715 mmHg 58%
    14:00 +34°C° 0.2 mm 3 mps 715 mmHg 60%
    15:00 +33°C° 0.7 mm 3 mps 714 mmHg 63%
    16:00 +32°C° 0.7 mm 2 mps 714 mmHg 67%
    17:00 +31°C° 0.7 mm 2 mps 713 mmHg 70%
    18:00 +30°C° 0.6 mm 2 mps 713 mmHg 75%
    19:00 +29°C° 0.6 mm 2 mps 714 mmHg 80%
    20:00 +27°C° 0.6 mm 1 mps 714 mmHg 84%
    21:00 +27°C° 1.7 mm 1 mps 714 mmHg 86%
    22:00 +27°C° 1.7 mm 1 mps 714 mmHg 88%
    23:00 +26°C° 1.7 mm 1 mps 714 mmHg 90%

    21 January, Sunday

    Time Temperature Precipitation Wind Pressure Humidity
    00:00 +26°C° 0.1 mm 1 mps 714 mmHg 90%
    01:00 +26°C° 0.1 mm 1 mps 713 mmHg 89%
    02:00 +26°C° 0.1 mm 1 mps 713 mmHg 89%
    03:00 +25°C° 0 mm 1 mps 713 mmHg 88%
    04:00 +25°C° 0 mm 1 mps 712 mmHg 87%
    05:00 +25°C° 0 mm 1 mps 712 mmHg 87%
    06:00 +26°C° 0 mm 1 mps 713 mmHg 83%
    07:00 +27°C° 0 mm 1 mps 713 mmHg 79%
    08:00 +28°C° 0 mm 1 mps 714 mmHg 75%
    09:00 +30°C° 0.2 mm 2 mps 714 mmHg 70%
    10:00 +31°C° 0.2 mm 2 mps 714 mmHg 66%
    11:00 +34°C° 0.2 mm 2 mps 714 mmHg 61%
    12:00 +34°C° 1.1 mm 2 mps 713 mmHg 60%
    13:00 +34°C° 1.1 mm 2 mps 713 mmHg 60%
    14:00 +35°C° 1.1 mm 3 mps 712 mmHg 60%
    15:00 +34°C° 1.2 mm 2 mps 712 mmHg 63%
    16:00 +34°C° 1.2 mm 2 mps 712 mmHg 66%
    17:00 +32°C° 1.2 mm 2 mps 712 mmHg 69%
    18:00 +30°C° 2.5 mm 2 mps 712 mmHg 74%
    19:00 +29°C° 2.5 mm 2 mps 713 mmHg 79%
    20:00 +27°C° 2.5 mm 2 mps 713 mmHg 85%
    21:00 +27°C° 4.1 mm 2 mps 714 mmHg 86%
    22:00 +26°C° 4.1 mm 1 mps 715 mmHg 87%
    23:00 +26°C° 4.1 mm 1 mps 715 mmHg 89%
    Show more